Погода в Амдерме

Погода в Амдерме : погода сейчас, прогноз погоды и архив. Всё, что Вы хотите узнать о погоде в Амдерме!

Хотите узнать прогноз погоды в Амдерме? Тогда Вам сюда: Погода в Амдерме

Поиск расширенной информации на нашем сайте:

Другие новости

Новости СМИ2

Главная страница сайта

Новости сайта

03.07.2017

Напоминаем, что на нашем специализированном сайте Метеоцентр.Азия вы можете получить высокодетализированные автоматические прогнозы погоды по пунктам России, СНГ и мира в авиационном формате (включающие направление и скорость ветра, видимость, явления погоды, количество и форму облачности, нижнюю и верхнюю границу облачности).

Рекомендуем: россельхозбанк онлайн заявка на кредит наличными оформить

Погода в Амдерме - сегодня

Время (UTC), дата Ветер
(°,м/с) 
Видим.   Явления Облачность Т
(°С)
Тd
(°С)
f(%) Тe
(°С)
Pmin
(гПа)
dP
(гПа)
Po
(мм)
O2
(г/м3)
Тmin Tmax R s Состояние
почвы
12 19.11.17 110 (В) 10 км  {туман}  9/9 600 м 
[Sc]
-11 -12 92 -13  1011.7  0.7  754  318           
15 19.11.17 100 (В) 10 км  позёмок  3/3 600 м 
[Sc]
-9.1 -10.1 92 -14  1011.5  -0.2  754  315    -8.4       
18 19.11.17 120 (ЮВ) 9-12{13}  10 км  позёмок  3/3 600 м 
[Sc]
-9.1 -10.4 90 -16  1011.2  -0.3  753  315           
21 19.11.17 110 (В) 8-10{12}  10 км  позёмок  8/0 средняя 
[Ac trans]
-8.8 -10.2 90 -15  1011.4  0.2  754  315           
00 20.11.17 110 (В) 11-14{14}  10 км  позёмок  10/10 600 м 
[Sc]
-8.2 -9.6 90 -15  1011.4  754  314           
03 20.11.17 100 (В) 10-13{16}  10 км  позёмок  8/0 средняя 
[Ac trans]
-9.6 -11 90 -17  1011.5  0.1  754  316  -10.3      равномерный
сухой снег
100% 
06 20.11.17 100 (В) 10-14{16}  10 км  позёмок{ливн. осадки}  9/4 600 м средняя 
[Sc|Ac trans]
-8.5 -9.6 92 -15  1011.8  0.3  754  315           
09 20.11.17 110 (В) 9-13{16}  4000 м  слаб. ливневой снег  9/6 300 м кучево-дожд., средняя, верхняя 
[Cb cap|Ac trans|Ci fib]
-7.8 -9 91 -14  1013  1.3  755  314           
12 20.11.17 100 (В) 9-14{16}  4000 м  слаб. ливневой снег  9/8 600 м кучево-дожд., средняя 
[Cb cap|Ac trans]
-8.3 -9.5 91 -15  1013.5  0.4  755  315           
15 20.11.17 110 (В) 11-15{15}  1000 м  ливневой снег  10/10 300 м кучево-дожд. 
[Cb cap]
-8.4 -9.3 93 -16  1014.8  1.3  756  315    -7.7     
18 20.11.17 110 (В) 10-15{17}  4000 м  слаб. ливневой снег  10/10 600 м кучево-дожд. 
[Cb cap]
-9.5 -10.6 92 -17  1016.1  1.3  757  317           
21 20.11.17 110 (В) 9-12{15}  4000 м  слаб. ливневой снег  10/10 300 м кучево-дожд. 
[Cb cap]
-10.1 -11.3 91 -17  1017.4  1.2  758  318           
00 21.11.17 120 (ЮВ) 6{12}  4000 м  слаб. ливневой снег  10/10 300 м кучево-дожд. 
[Cb cap]
-10.5 -11.7 91 -16  1018  0.6  758  319           
03 21.11.17 120 (ЮВ) 4000 м  слаб. ливневой снег  10/10 300 м кучево-дожд. 
[Cb cap]
-12.8 -14.3 89 -18  1018.5  0.5  759  322  -12.8    равномерный
сухой снег
100% 
06 21.11.17 130 (ЮВ) 4000 м  слаб. ливневой снег  9/9 300 м кучево-дожд. 
[Cb cap]
-14.1 -15.7 88 -20  1019.4  0.8  759  324  -14.2         
09 21.11.17 130 (ЮВ) 4000 м  слаб. ливневой снег  9/5 300 м кучево-дожд., средняя, верхняя 
[Cb cap|Ac cast|Ci sp]
-15.7 -17.2 88 -21  1021.1  1.6  761  327           
12 21.11.17 110 (В) 5{10}  4000 м  слаб. ливневой снег  9/5 300 м кучево-дожд., средняя, верхняя 
[Cb cap|Ac cast|Ci sp]
-13.4 -14.9 88 -19  1022.6  1.6  762  324           
15 21.11.17 120 (ЮВ) 7{10}  4000 м  слаб. ливневой снег  9/9 300 м кучево-дожд. 
[Cb cap]
-13.3 -14.8 88 -20  1023.8  1.2  763  324    -12.8  0.3     
18 21.11.17 120 (ЮВ) 5{10}  4000 м  слаб. ливневой снег  10/10 300 м кучево-дожд. 
[Cb cap]
-14.3 -16 87 -20  1024.9  1.1  764  326           
21 21.11.17 130 (ЮВ) 4000 м  слаб. ливневой снег  10/10 300 м кучево-дожд. 
[Cb cap]
-15.3 -16.9 88 -22  1026.1  1.2  764  328           
00 22.11.17 130 (ЮВ) 10 км  {ливн. осадки}  9/9 600 м 
[Sc]
-16.2 -17.9 87 -23  1026.5  0.3  765  329           
06 22.11.17 130 (ЮВ) 10 км  {ливн. осадки}  3/0 средняя, верхняя 
[Ac trans|Ci sp]
-20.8 -23.1 82 -28  1027.5  765  336  -21.1         
09 22.11.17 120 (ЮВ) 10 км    3/0 верхняя 
[Ci sp]
-19.3 -21.4 83 -27  1028  0.5  766  334           
12 22.11.17 120 (ЮВ) 9-12{12}  10 км  позёмок  3/0 средняя, верхняя 
[Ac trans|Ci fib]
-17.5 -19.5 84 -26  1028.2  0.2  766  331           
15 22.11.17 120 (ЮВ) 9-12{13}  10 км  позёмок  ясно 
-17 -18.9 85 -25  1028.3  0.2  766  331    -14.4  0.0     
Время (UTC), дата Ветер
(°,м/с) 
Видим.   Явления Облачность Т
(°С)
Тd
(°С)
f(%) Тe
(°С)
Pmin
(гПа)
dP
(гПа)
Po
(мм)
O2
(г/м3)
Тmin Tmax R s Состояние
почвы

Для получения пояснительной информации подведите курсор к названию столбца.

ПОГОДА в Амдерме - архив

Всё, что Вы хотите узнать о погоде в Амдерме - удобно и подробно!

Выберите нужную дату (начиная с 1 января 2015* года) и нажмите кнопку "Найти".
Будут отображены архивные сводки погоды по пункту Амдерма, начиная с указанной даты.


Отображать данные в формате CSV (для использования в таблицах Excel)


Внимание! Наш архив погоды предназначен исключительно для личного некоммерческого использования в познавательных целях. Если Вам необходимы официальные справки о состоянии погоды (для производственных, юридических, коммерческих и т.п. целей), обращайтесь в органы Росгидромета.

*Примечание: данная дата относится к архиву по метеостанциям СССР (Россия, СНГ, Балтия).
Архив по метеостанциям Зарубежной Европы и Азии (кроме Китая) хранится 10 дней, по другим регионам земного шара (Китай, Африка, Америка, Австралия, Океания) - 1 день.

Амдерма - район местоположения метеостанции


Название, широта, долгота, высота метеостанции:
Амдерма 69.8°ш. 61.7°д. 49 м над ур. моря [Российская Федерация]

Дополнительная информация

В oтличие oт бoльшинства пoгoдных сайтoв мы публикуем пoдрoбную метеoинфoрмацию в детальнoм прoфессиoнальнoм фoрмате.

Характеристики температуры и влажнoсти вoздуха измеряются на высoте 2 м в тени вдали oт зданий и деревьев.
Скoрoсть ветра измеряется на высoте 10 м (на урoвне рoста челoвека скoрoсть ветра ниже в 1.5-2 раза). Если метеoстанция нахoдится в гoрoде или в лесу, тo скoрoсть ветра занижена на 2-4 м/с пo сравнению с oткрытым местoм. Скoрoсть ветра над акватoриями крупных рек и oзёр, а также на вершинах хoлмoв на 2-5 м/с выше, чем в oбычных услoвиях.
Атмoсфернoе давление в разных тoчках местнoсти мoжет значительнo oтличаться oт давления на метеoстанции, в зависимoсти oт услoвий рельефа (при пoдъёме на 10 м давление пoнижается примернo на 1 мм рт.ст.).